When you browse on this site, cookies collect data to enhance your experience and personalize the content and advertising you see.
Visit our Privacy Policy to learn more. By continuing to use the site, you agree to this use of cookies and data.
  • In United Kingdom
  • List of Countries
  • For 7 days
  • Water Temperature
  • Weather Map
  • Weather Widgets
  • user-avatar
    Login

    Hourly Weather Mainz

    Today, 30 May, Saturday

    Time Temperature Precipitation Wind Pressure Humidity
    00:00 +14°C° 0 mm 2 mps 759 mmHg 64%
    01:00 +13°C° 0 mm 2 mps 759 mmHg 67%
    02:00 +13°C° 0 mm 2 mps 759 mmHg 69%
    03:00 +12°C° 0 mm 2 mps 759 mmHg 71%
    04:00 +12°C° 0 mm 2 mps 758 mmHg 73%
    05:00 +13°C° 0 mm 2 mps 758 mmHg 70%
    06:00 +14°C° 0 mm 2 mps 759 mmHg 67%
    07:00 +15°C° 0 mm 2 mps 759 mmHg 64%
    08:00 +16°C° 0 mm 3 mps 758 mmHg 58%
    09:00 +18°C° 0 mm 3 mps 758 mmHg 53%
    10:00 +19°C° 0 mm 4 mps 758 mmHg 47%
    11:00 +20°C° 0 mm 4 mps 758 mmHg 44%
    12:00 +20°C° 0 mm 5 mps 757 mmHg 40%
    13:00 +21°C° 0 mm 5 mps 757 mmHg 36%
    14:00 +21°C° 0 mm 5 mps 757 mmHg 38%
    15:00 +21°C° 0 mm 5 mps 757 mmHg 39%
    16:00 +20°C° 0 mm 6 mps 756 mmHg 40%
    17:00 +19°C° 0 mm 5 mps 757 mmHg 44%
    18:00 +17°C° 0 mm 5 mps 757 mmHg 49%
    19:00 +17°C° 0 mm 4 mps 757 mmHg 53%
    20:00 +15°C° 0 mm 4 mps 757 mmHg 56%
    21:00 +14°C° 0 mm 3 mps 757 mmHg 60%
    22:00 +13°C° 0 mm 3 mps 757 mmHg 63%
    23:00 +12°C° 0 mm 3 mps 757 mmHg 65%

    Tomorrow, 31 May, Sunday

    Time Temperature Precipitation Wind Pressure Humidity
    00:00 +12°C° 0 mm 3 mps 758 mmHg 66%
    01:00 +12°C° 0 mm 2 mps 758 mmHg 68%
    02:00 +12°C° 0 mm 2 mps 757 mmHg 71%
    03:00 +10°C° 0 mm 2 mps 757 mmHg 74%
    04:00 +9°C° 0 mm 2 mps 757 mmHg 77%
    05:00 +10°C° 0 mm 2 mps 757 mmHg 74%
    06:00 +11°C° 0 mm 3 mps 757 mmHg 71%
    07:00 +12°C° 0 mm 3 mps 758 mmHg 68%
    08:00 +13°C° 0 mm 3 mps 757 mmHg 62%
    09:00 +16°C° 0 mm 3 mps 757 mmHg 57%
    10:00 +17°C° 0 mm 3 mps 757 mmHg 51%
    11:00 +18°C° 0 mm 3 mps 757 mmHg 48%
    12:00 +19°C° 0 mm 4 mps 757 mmHg 45%
    13:00 +20°C° 0 mm 4 mps 756 mmHg 42%
    14:00 +21°C° 0 mm 4 mps 756 mmHg 42%
    15:00 +21°C° 0 mm 4 mps 756 mmHg 41%
    16:00 +21°C° 0 mm 4 mps 756 mmHg 41%
    17:00 +20°C° 0 mm 4 mps 756 mmHg 46%
    18:00 +19°C° 0 mm 4 mps 756 mmHg 50%
    19:00 +18°C° 0 mm 3 mps 756 mmHg 54%
    20:00 +17°C° 0 mm 3 mps 756 mmHg 58%
    21:00 +16°C° 0 mm 3 mps 757 mmHg 62%
    22:00 +14°C° 0 mm 3 mps 757 mmHg 67%
    23:00 +13°C° 0 mm 3 mps 757 mmHg 71%

    Day after tomorrow, 1 June, Monday

    Time Temperature Precipitation Wind Pressure Humidity
    00:00 +14°C° 0 mm 2 mps 757 mmHg 75%
    01:00 +13°C° 0 mm 2 mps 757 mmHg 79%
    02:00 +12°C° 0 mm 2 mps 757 mmHg 81%
    03:00 +12°C° 0 mm 2 mps 757 mmHg 82%
    04:00 +10°C° 0 mm 2 mps 757 mmHg 84%
    05:00 +12°C° 0 mm 2 mps 757 mmHg 80%
    06:00 +13°C° 0 mm 2 mps 757 mmHg 77%
    07:00 +14°C° 0 mm 2 mps 757 mmHg 73%
    08:00 +16°C° 0 mm 3 mps 757 mmHg 66%
    09:00 +18°C° 0 mm 3 mps 757 mmHg 59%
    10:00 +20°C° 0 mm 4 mps 757 mmHg 52%
    11:00 +21°C° 0 mm 4 mps 757 mmHg 49%
    12:00 +22°C° 0 mm 4 mps 757 mmHg 45%
    13:00 +25°C° 0 mm 4 mps 756 mmHg 41%
    14:00 +25°C° 0 mm 4 mps 756 mmHg 41%
    15:00 +25°C° 0 mm 4 mps 756 mmHg 41%
    16:00 +25°C° 0 mm 4 mps 756 mmHg 40%
    17:00 +23°C° 0 mm 4 mps 756 mmHg 45%
    18:00 +22°C° 0 mm 4 mps 756 mmHg 51%
    19:00 +22°C° 0 mm 3 mps 756 mmHg 56%
    20:00 +20°C° 0 mm 3 mps 756 mmHg 60%
    21:00 +19°C° 0 mm 3 mps 756 mmHg 64%
    22:00 +17°C° 0 mm 3 mps 756 mmHg 67%
    23:00 +16°C° 0 mm 3 mps 756 mmHg 70%

    2 June, Tuesday

    Time Temperature Precipitation Wind Pressure Humidity
    00:00 +15°C° 0 mm 2 mps 756 mmHg 72%
    01:00 +15°C° 0 mm 2 mps 756 mmHg 75%
    02:00 +14°C° 0 mm 2 mps 756 mmHg 76%
    03:00 +14°C° 0 mm 2 mps 756 mmHg 77%
    04:00 +13°C° 0 mm 2 mps 756 mmHg 78%
    05:00 +14°C° 0 mm 2 mps 756 mmHg 74%
    06:00 +15°C° 0 mm 2 mps 756 mmHg 70%
    07:00 +16°C° 0 mm 2 mps 756 mmHg 65%
    08:00 +18°C° 0 mm 2 mps 756 mmHg 58%
    09:00 +19°C° 0 mm 3 mps 756 mmHg 52%
    10:00 +21°C° 0 mm 3 mps 756 mmHg 45%
    11:00 +22°C° 0 mm 3 mps 755 mmHg 42%
    12:00 +24°C° 0 mm 3 mps 755 mmHg 39%
    13:00 +25°C° 0 mm 3 mps 755 mmHg 37%
    14:00 +25°C° 0 mm 3 mps 754 mmHg 37%
    15:00 +25°C° 0 mm 3 mps 753 mmHg 38%
    16:00 +25°C° 0 mm 2 mps 753 mmHg 38%
    17:00 +25°C° 0 mm 2 mps 753 mmHg 43%
    18:00 +24°C° 0 mm 2 mps 752 mmHg 49%
    19:00 +23°C° 0 mm 2 mps 752 mmHg 54%
    20:00 +21°C° 0 mm 1 mps 752 mmHg 57%
    21:00 +20°C° 0 mm 1 mps 752 mmHg 61%
    22:00 +16°C° 0 mm 0 mps 752 mmHg 65%
    23:00 +18°C° 0 mm 1 mps 751 mmHg 67%

    3 June, Wednesday

    Time Temperature Precipitation Wind Pressure Humidity
    00:00 +16°C° 0 mm 1 mps 751 mmHg 69%
    01:00 +16°C° 0 mm 1 mps 751 mmHg 71%
    02:00 +15°C° 0 mm 1 mps 750 mmHg 73%
    03:00 +15°C° 0 mm 1 mps 750 mmHg 75%
    04:00 +15°C° 0 mm 1 mps 750 mmHg 77%
    05:00 +16°C° 0 mm 1 mps 749 mmHg 74%
    06:00 +16°C° 0 mm 1 mps 749 mmHg 70%
    07:00 +18°C° 0 mm 1 mps 749 mmHg 67%
    08:00 +19°C° 0 mm 2 mps 748 mmHg 61%
    09:00 +20°C° 0 mm 2 mps 748 mmHg 56%
    10:00 +22°C° 0 mm 3 mps 748 mmHg 50%
    11:00 +24°C° 0 mm 3 mps 747 mmHg 47%
    12:00 +25°C° 0 mm 3 mps 747 mmHg 44%
    13:00 +26°C° 0 mm 4 mps 746 mmHg 41%
    14:00 +26°C° 0 mm 4 mps 746 mmHg 41%
    15:00 +27°C° 0 mm 4 mps 745 mmHg 41%
    16:00 +27°C° 0 mm 4 mps 745 mmHg 41%
    17:00 +26°C° 0 mm 3 mps 745 mmHg 45%
    18:00 +25°C° 0 mm 3 mps 744 mmHg 49%
    19:00 +24°C° 0 mm 3 mps 744 mmHg 53%
    20:00 +22°C° 0 mm 3 mps 744 mmHg 55%
    21:00 +20°C° 0 mm 2 mps 744 mmHg 57%
    22:00 +19°C° 0 mm 2 mps 744 mmHg 60%
    23:00 +18°C° 0 mm 2 mps 744 mmHg 61%

    4 June, Thursday

    Time Temperature Precipitation Wind Pressure Humidity
    00:00 +18°C° 0 mm 2 mps 744 mmHg 62%
    01:00 +17°C° 0 mm 3 mps 744 mmHg 63%
    02:00 +17°C° 0 mm 2 mps 744 mmHg 66%
    03:00 +16°C° 0 mm 2 mps 743 mmHg 69%
    04:00 +15°C° 0 mm 1 mps 743 mmHg 72%
    05:00 +16°C° 0 mm 2 mps 743 mmHg 70%
    06:00 +17°C° 0 mm 2 mps 743 mmHg 68%
    07:00 +18°C° 0 mm 3 mps 743 mmHg 66%
    08:00 +19°C° 0 mm 2 mps 743 mmHg 64%
    09:00 +19°C° 0 mm 2 mps 743 mmHg 61%
    10:00 +20°C° 0 mm 2 mps 743 mmHg 59%
    11:00 +20°C° 0.1 mm 2 mps 742 mmHg 61%
    12:00 +21°C° 0.1 mm 2 mps 742 mmHg 62%
    13:00 +21°C° 0.1 mm 3 mps 742 mmHg 64%
    14:00 +20°C° 0.3 mm 2 mps 742 mmHg 71%
    15:00 +19°C° 0.3 mm 2 mps 742 mmHg 77%
    16:00 +19°C° 0.3 mm 2 mps 742 mmHg 84%
    17:00 +19°C° 0.2 mm 2 mps 742 mmHg 84%
    18:00 +18°C° 0.2 mm 2 mps 742 mmHg 84%
    19:00 +18°C° 0.2 mm 2 mps 742 mmHg 85%
    20:00 +18°C° 0 mm 2 mps 742 mmHg 85%
    21:00 +18°C° 0 mm 2 mps 742 mmHg 85%
    22:00 +18°C° 0 mm 2 mps 742 mmHg 85%
    23:00 +17°C° 0 mm 2 mps 741 mmHg 86%
    Show more